Location: Unspecified
(0.0000°N, 0.0000°E)
Time: 17:57:48
(UTC+00:00)

SRMSAT - Pass Details

Date: 24 July 2019
Orbit: 848 x 865 km, 20.0° (Epoch: 07 December)

Event Time Altitude Azimuth Distance (km) Brightness Sun altitude
Rises 18:46:24 0° 288° (WNW) 3,424 ? -9.4°
Reaches altitude 10° 18:49:58 10° 308° (NW) 2,488 ? -10.2°
Maximum altitude 18:53:39 17° 347° (NNW) 2,056 ? -11.1°
Drops below altitude 10° 18:57:20 10° 25° (NNE) 2,487 ? -11.9°
Sets 19:00:54 0° 45° (NE) 3,422 ? -12.8°
